sat.trackr.live / text

‹ back to catalog

TIANLIAN 1-04

NORAD 41869 · 2016-072A

PAYLOAD ACTIVE UNKNOWN

§ Identity

Operator
Country
PRC
Launch date
2016-11-22
Launch site
XICLF
Launch vehicle
Mass (kg)
RCS (m²)
21.95

Purposes: comms

External: N2YO · Heavens-Above · Gunter

§ Orbital elements

Epoch: 2026-09-20T04:04:38.266176Z

Period
1,436.09 min
Inclination
1.1067°
Eccentricity
0.0047046
Mean motion
1.00272263 rev/d
Perigee alt
35,588.1 km
Apogee alt
35,984.8 km
Semi-major
42,164.6 km
B*
0.0000e+0
RAAN
82.0094°
Arg perigee
96.6185°
Mean anomaly
58.3843°
Rev number
3,625

§ Raw data

TIANLIAN 1-041 41869U 16072A   26263.16988734  .00000027  00000+0  00000+0 0  99962 41869   1.1067  82.0094 0047046  96.6185  58.3843  1.00272263 36254

JSON: /api/v1/satellites/41869 · /tle

For live sub-satellite position, see the globe view (requires WebGL).

§ Visibility from observer

Set your observer location to see the next 7 days of passes ≥ 10°. The values pass through the URL so the page stays shareable.

No JS? Fill the form by hand. The geolocation button needs JavaScript.